Weather Roundup
Issued by NWS Corpus Christi, TX

Home | Current Version | Previous Version | Text Only | Print | Product List | Glossary On
Versions: 1 2 3 4 5 6 7 8 9 10 11 12 13 14 15 16 17 18 19 20 21 22 23 24 25 26 27 28 29 30 31 32 33 34 35 36 37 38 39 40 41 42 43 44 45 46 47 48 49 50
000
ASUS44 KCRP 271110
HRRCRP

SOUTH TEXAS REGIONAL WEATHER ROUNDUP
NATIONAL WEATHER SERVICE CORPUS CHRISTI TX
600 AM CDT WED MAY 27 2015


TXZ229>244-271200-
...CORPUS CHRISTI AREA OBSERVATIONS...

CITY           SKY/WX    TMP DP  RH WIND       PRES   REMARKS
CORPUS CHRISTI MOCLDY    78  75  90 SE12      29.96F
NAS CORPUS CHR MOCLDY    80  75  84 SE13      29.97S
ROCKPORT       MOCLDY    80  75  84 S8        29.97R
KINGSVILLE NAS CLOUDY    79  78  97 SE7       29.97R
ALICE          CLOUDY    79  75  87 SE8       29.97S
FALFURRIAS     MOCLDY    78  75  90 E5        29.97R
$$

...VICTORIA AREA OBSERVATIONS...

CITY           SKY/WX    TMP DP  RH WIND       PRES   REMARKS
VICTORIA       CLOUDY    76  76 100 SE7       29.98S FOG
BEEVILLE       FAIR      77  77 100 S7        29.98R
PLEASANTON     CLOUDY    76  74  93 SE3       29.98S FOG
SAN ANTONIO    CLOUDY    78  74  87 E8        30.01S
$$

...LAREDO AREA OBSERVATIONS...

CITY           SKY/WX    TMP DP  RH WIND       PRES   REMARKS
LAREDO         MOCLDY    80  75  84 SE9       29.97R
COTULLA        MOCLDY    79  75  87 E10       29.97R
DEL RIO        CLOUDY    77  74  90 E15G21    29.94S
MCALLEN        CLOUDY    79  75  87 SE10      29.95R FOG
HEBBRONVILLE     N/A     77  74  90 SE9       29.99R FOG
$$

...OTHER TEXAS OBSERVATIONS...

CITY           SKY/WX    TMP DP  RH WIND       PRES   REMARKS
BROWNSVILLE    CLOUDY    77  75  93 SE9       29.95R
HOUSTON        TSTM      66  64  93 NE18G25   30.10R FOG
COL. STATION   CLOUDY    66  64  93 SE9       30.03S
AUSTIN         CLOUDY    68  66  93 NE8       30.03R
WACO           CLOUDY    63  61  93 NE6       30.01R
FORT WORTH     CLOUDY    61  58  90 CALM      29.98R
WICHITA FALLS  MOCLDY    63  61  93 CALM      30.01R
LUBBOCK        CLOUDY    62  59  90 SE6       30.06R
EL PASO        CLEAR     60  30  32 SE3       30.03R
$$

...MARINE OBSERVATIONS...

STATION/POSITION TIME  SKY/WX   TEMP    WIND        PRES    VSBY  WAVE   SWELL
                                AIR SEA DIR/SP/G                  HT/PER HT/PER
                 (UTC)          (F)     (DEG/KT/KT) (MB)    (MI)  (FT/S) (FT/S)
PORT ARANSAS     1100            81 81  150/ 15/ 17 1015.5F
BUOY 90 E PORT A 1050            80 80  170/ 12/ 16 1015.4F         6/ 7   5/ 7
BUOY 45 SE BAFFI 1050            80 81  150/ 14/ 17 1014.5R         7/ 7   5/ 7
BUOY 200 E PT IS 1050            81 81  130/ 14/ 16 1016.3R         5/ 6   3/ 8
BUOY 15 E GALVES 1050            80 80  160/  8/ 10 1016.6R         4/ 7   3/ 7
$$



USA.gov is the U.S. government's official web portal to all federal, state and local government web resources and services.